Regional Weather Roundup
Issued by NWS Upton, NY

Current Version | Previous Version | Text Only | Print | Product List | Glossary On
Versions: 1 2 3 4 5 6 7 8 9 10 11 12 13 14 15 16 17 18 19 20 21 22 23 24 25 26 27 28 29 30 31 32 33 34 35 36 37 38 39 40 41 42 43 44 45 46 47 48 49 50
000
ASUS41 KOKX 282108
RWROKX

REGIONAL WEATHER ROUNDUP
NATIONAL WEATHER SERVICE NEW YORK NY
500 PM EDT THU MAY 28 2015

NOTE: "FAIR" INDICATES FEW OR NO CLOUDS BELOW 12,000 FEET WITH NO
SIGNIFICANT WEATHER AND/OR OBSTRUCTIONS TO VISIBILITY.

NYZ071-072-176-178-NJZ106-104-282200-
NEW YORK CITY METRO AREA


CITY           SKY/WX    TMP DP  RH WIND       PRES   REMARKS
CENTRAL PARK   PTSUNNY   83  66  56 VRB3      30.13F
LAGUARDIA APRT PTSUNNY   81  63  54 S13       30.10F
KENNEDY INTL   PTSUNNY   73  62  68 S18       30.13F
NEWARK/LIBERTY PTSUNNY   86  67  52 S8        30.10F
BRNX BOT. GARD   N/A     81  64  57 SE5       30.11F
TETERBORO      LGT RAIN  88  69  53 S8        30.09F HX  92
$$

NYZ177-179-078>081-282200-
LONG ISLAND NEW YORK

CITY           SKY/WX    TMP DP  RH WIND       PRES   REMARKS
FARMINGDALE    PTSUNNY   73  64  73 S14       30.14S
ISLIP          CLOUDY    71  63  75 SW10      30.12F
SHIRLEY        PTSUNNY   70  62  76 SW14      30.15F
WESTHAMPTON    PTSUNNY   68  62  81 SW13G21   30.16F
MONTAUK POINT    N/A     65  59  81 S10G20    30.15F
$$

NYZ052-065-067-282200-
HUDSON VALLEY

CITY           SKY/WX    TMP DP  RH WIND       PRES   REMARKS
WHITE PLAINS   PTSUNNY   79  68  69 S13       30.11F
NEWBURGH       MOSUNNY   84  61  45 W16G29    30.11S
MONTGOMERY     MOSUNNY   84  59  42 W12G21    30.11R
POUGHKEEPSIE   MOSUNNY   87  57  35 W15G23    30.09R
ALBANY         MOSUNNY   76  54  46 NW16G25   30.16R
$$

NJZ001-105-106-008-010-013-015-019>022-104-282200-
NEW JERSEY

CITY           SKY/WX    TMP DP  RH WIND       PRES   REMARKS
NEWARK/LIBERTY PTSUNNY   86  67  52 S8        30.10F
TETERBORO      LGT RAIN  88  69  53 S8        30.09F HX  92
CALDWELL       PTSUNNY   85  66  53 W9        30.11S
MORRISTOWN     PTSUNNY   88  66  48 W10G16    30.12S HX  90
SOMERVILLE     PTSUNNY   87  63  44 VRB6      30.10S
SUSSEX         SUNNY     85  57  38 VRB6      30.15S
ANDOVER          N/A     85  60  42 MISG      30.14S
TRENTON        PTSUNNY   85  65  51 W8        30.12F
MILLVILLE      PTSUNNY   81  70  69 S9        30.15F
ATLANTIC CITY  PTSUNNY   78  67  68 S15G22    30.15F
WRIGHTSTOWN    PTSUNNY   84  64  50 W9        30.11R
TOMS RIVER     PTSUNNY  N/A N/A N/A SE14G23   30.15R THUNDER
BELMAR         PTSUNNY   81  63  54 S7G17     30.14S
$$

PAZ047>061-062-071-282200-
EASTERN PENNSYLVANIA

CITY           SKY/WX    TMP DP  RH WIND       PRES   REMARKS
PHILADELPHIA   CLOUDY    82  60  47 SW13      30.14S
ALLENTOWN      MOSUNNY   86  56  35 NW7       30.15S
SCRANTON       MOSUNNY   82  55  39 NW10      30.20S
$$

CTZ002-004>006-009-010-012-RIZ004-006-007-MAZ004-011-015-282200-
SOUTHERN NEW ENGLAND
 IN CT

CITY           SKY/WX    TMP DP  RH WIND       PRES   REMARKS
BRADLEY INTL   CLOUDY    80  68  66 S12       30.07F
HARTFORD       PTSUNNY   78  66  66 S14G22    30.08F
DANBURY        TSTM      69  64  84 VRB3      30.16R VSB 1/2
WTRBRY/OXFORD  PTSUNNY   73  66  78 SW5       30.14F THUNDER
BRIDGEPORT     PTSUNNY   73  65  75 VRB3      30.12S
MERIDEN        PTSUNNY   77  66  68 S9        30.11S
NEW HAVEN      PTSUNNY   75  65  70 SE6       30.12F
CHESTER        FAIR      75  66  73 S12       30.13F
GROTON         MOSUNNY   67  60  78 S12       30.12F
WILLIMANTIC    MOSUNNY   80  67  64 SW9G20    30.09F

 IN RI

CITY           SKY/WX    TMP DP  RH WIND       PRES   REMARKS
PROVIDENCE     PTSUNNY   77  65  66 S17       30.10F
BLOCK ISLAND   MOSUNNY   64  57  77 SW17G28   30.15F
WESTERLY       MOSUNNY   66  59  78 SW12      30.14F

 IN MA

CITY           SKY/WX    TMP DP  RH WIND       PRES   REMARKS
BOSTON         PTSUNNY   84  67  56 S20       30.04F
WORCESTER      PTSUNNY   80  63  55 SW12      30.10R
WESTFIELD      CLOUDY    82  67  60 W13G28    30.06S
PROVINCETOWN   CLOUDY    66  59  77 SW20G28   30.12S
NANTUCKET      CLOUDY    65  58  78 S18       30.17F
$$

ANZ330-335-338-340-345-350-353-355-282200-
COASTAL MARINE OBSERVATIONS


STATION/POSITION TIME  SKY/WX   TEMP    WIND        PRES    VSBY  WAVE
                                AIR SEA DIR/SP/G                  HT/PER
                 (UTC)          (F)     (DEG/KT/KT) (MB)    (MI)  (FT/S)
NY HARB ENTRANCE 2050            62 58  190/ 14/ 17 1019.7          3/ 6
4S FIRE IS       2003               58                N/A           3/ 6
20S FIRE ISLAND  2050            62 58  200/ 14/ 17 1020.5          4/ 5
GREAT SOUTH BAY  2030            64 68  220/  6/ 10   N/A
23SW MTP         2050            60 54  210/ 14/ 16 1020.8          4/ 6
HUDSON CANYON    NOT AVBL
KINGS POINT      2000            75 63  190/ 15/ 17 1019.4
CENTRAL LI SOUND 2000            68 62  130/  4/  8   N/A
EASTERN LI SOUND 2000            63     210/  8/ 10   N/A
ROBBINS REEF     2000            73     160/ 15/ 16 1018.6
$$


>>>>>>>>>>>>>>>>>>>>>>>>>>>> KEY <<<<<<<<<<<<<<<<<<<<<<<<<<<
>                                                          <
>     SKY/WX - SKY CONDITION/PRESENT WEATHER               <
>     TMP    - TEMPERATURE IN FAHRENHEIT                   <
>     DP     - DEWPOINT IN FAHRENHEIT                      <
>     RH     - RELATIVE HUMIDITY IN PERCENT                <
>     WIND   - DIRECTION AND SPEED IN MPH                  <
>     PRES   - MEAN SEA LEVEL PRESSURE IN INCHES OF HG     <
>     WCI    - WIND CHILL INDEX                            <
>     VSB    - VISIBILITY IN MILES                         <
>     HX     - HEAT INDEX                                  <
>     TC     - TEMPERATURE IN CELSIUS                      <
>     VRB    - VARIABLE WIND DIRECTION                     <
>                                                          <
>>>>>>>>>>>>>>>>>>>>>>>>>>>> KEY <<<<<<<<<<<<<<<<<<<<<<<<<<<




USA.gov is the U.S. government's official web portal to all federal, state and local government web resources and services.